Location: Newark
(31.5350°N, 35.0986°E)
Time: 07:19:47
(UTC+00:00)

Vanguard 1 - Pass Details

Date: 01 October 2019
Orbit: 653 x 3830 km, 34.2° (Epoch: 18 October)

Event Time Altitude Azimuth Distance (km) Brightness Sun altitude
Rises 04:03:06 0° 291° (WNW) 7,912 14.0 5.5°
Reaches altitude 10° 04:09:14 10° 286° (WNW) 6,692 13.7 6.8°
Maximum altitude 04:27:36 42° 224° (SW) 3,466 12.7 10.7°
Drops below altitude 10° 04:38:57 10° 158° (SSE) 4,210 13.9 13.1°
Sets 04:41:52 0° 150° (SSE) 4,848 14.3 13.7°
